Time,TemperatureF,DewpointF,PressureIn,WindDirection,WindDirectionDegrees,WindSpeedMPH,WindSpeedGustMPH,Humidity,HourlyPrecipIn,Conditions,Clouds,dailyrainin,SoftwareType,DateUTC
2013-05-03 00:01:00,38.6,26.7,30.46,North,359,1.0,4.0,62,0.00,,---,0.00,VWS V14.01,2013-05-03 05:01:00,
2013-05-03 00:06:00,38.5,26.6,30.46,NW,312,1.0,4.0,62,0.00,,---,0.00,VWS V14.01,2013-05-03 05:06:00,
2013-05-03 00:11:00,38.5,27.0,30.45,NNW,335,2.0,4.0,63,0.00,,---,0.00,VWS V14.01,2013-05-03 05:11:00,
2013-05-03 00:16:00,38.4,26.9,30.45,NE,36,2.0,4.0,63,0.00,,---,0.00,VWS V14.01,2013-05-03 05:16:00,
2013-05-03 00:21:00,38.4,26.9,30.45,North,353,2.0,4.0,63,0.00,,---,0.00,VWS V14.01,2013-05-03 05:21:00,
2013-05-03 00:26:00,38.3,26.8,30.45,NNW,347,1.0,6.0,63,0.00,,---,0.00,VWS V14.01,2013-05-03 05:26:00,
2013-05-03 00:31:00,38.2,26.7,30.46,NNW,329,3.0,8.0,63,0.00,,---,0.00,VWS V14.01,2013-05-03 05:31:00,
2013-05-03 00:36:00,38.1,26.6,30.45,North,351,1.0,8.0,63,0.00,,---,0.00,VWS V14.01,2013-05-03 05:36:00,
2013-05-03 00:41:00,37.9,26.5,30.45,WNW,299,2.0,8.0,63,0.00,,---,0.00,VWS V14.01,2013-05-03 05:41:00,
2013-05-03 00:46:00,37.9,26.5,30.46,North,9,1.0,7.0,63,0.00,,---,0.00,VWS V14.01,2013-05-03 05:46:00,
2013-05-03 00:51:00,37.7,26.3,30.46,NNE,29,0.0,7.0,63,0.00,,---,0.00,VWS V14.01,2013-05-03 05:51:00,
2013-05-03 00:56:00,37.6,26.5,30.46,North,351,1.0,7.0,64,0.00,,---,0.00,VWS V14.01,2013-05-03 05:56:00,
2013-05-03 01:01:00,37.4,26.4,30.45,NW,317,2.0,4.0,64,0.00,,---,0.00,VWS V14.01,2013-05-03 06:01:00,
2013-05-03 01:06:00,37.3,26.3,30.45,NNW,339,2.0,4.0,64,0.00,,---,0.00,VWS V14.01,2013-05-03 06:06:00,
2013-05-03 01:11:00,37.3,26.3,30.45,North,353,0.0,4.0,64,0.00,,---,0.00,VWS V14.01,2013-05-03 06:11:00,
2013-05-03 01:16:00,37.2,26.5,30.45,NNW,345,1.0,2.0,65,0.00,,---,0.00,VWS V14.01,2013-05-03 06:16:00,
2013-05-03 01:21:00,37.1,26.4,30.45,NNE,19,1.0,5.0,65,0.00,,---,0.00,VWS V14.01,2013-05-03 06:21:00,
2013-05-03 01:26:00,37.1,26.4,30.45,NNW,332,1.0,5.0,65,0.00,,---,0.00,VWS V14.01,2013-05-03 06:26:00,
2013-05-03 01:31:00,37.1,26.4,30.45,North,2,1.0,3.0,65,0.00,,---,0.00,VWS V14.01,2013-05-03 06:31:00,
2013-05-03 01:36:00,37.1,26.4,30.44,NE,47,4.0,7.0,65,0.00,,---,0.00,VWS V14.01,2013-05-03 06:36:00,
2013-05-03 01:41:00,37.2,26.5,30.44,NNW,333,3.0,7.0,65,0.00,,---,0.00,VWS V14.01,2013-05-03 06:41:00,
2013-05-03 01:46:00,37.2,26.5,30.44,NNE,13,0.0,3.0,65,0.00,,---,0.00,VWS V14.01,2013-05-03 06:46:00,
2013-05-03 01:51:00,37.1,26.4,30.44,North,11,2.0,6.0,65,0.00,,---,0.00,VWS V14.01,2013-05-03 06:51:00,
2013-05-03 01:56:00,37.1,26.4,30.44,NNW,346,1.0,6.0,65,0.00,,---,0.00,VWS V14.01,2013-05-03 06:56:00,
2013-05-03 02:01:00,37.0,26.3,30.43,NNE,20,1.0,4.0,65,0.00,,---,0.00,VWS V14.01,2013-05-03 07:01:00,
2013-05-03 02:06:00,36.9,26.2,30.43,North,7,2.0,7.0,65,0.00,,---,0.00,VWS V14.01,2013-05-03 07:06:00,
2013-05-03 02:11:00,36.9,26.2,30.43,North,8,2.0,7.0,65,0.00,,---,0.00,VWS V14.01,2013-05-03 07:11:00,
2013-05-03 02:16:00,36.8,26.1,30.42,NNW,345,2.0,9.0,65,0.00,,---,0.00,VWS V14.01,2013-05-03 07:16:00,
2013-05-03 02:21:00,36.7,26.1,30.42,NNW,342,2.0,9.0,65,0.00,,---,0.00,VWS V14.01,2013-05-03 07:21:00,
2013-05-03 02:26:00,36.6,26.0,30.42,NNW,341,1.0,9.0,65,0.00,,---,0.00,VWS V14.01,2013-05-03 07:26:00,
2013-05-03 02:31:00,36.6,26.0,30.42,NNW,344,1.0,4.0,65,0.00,,---,0.00,VWS V14.01,2013-05-03 07:31:00,
2013-05-03 02:36:00,36.5,25.9,30.42,North,351,2.0,6.0,65,0.00,,---,0.00,VWS V14.01,2013-05-03 07:36:00,
2013-05-03 02:41:00,36.5,25.9,30.42,NW,318,3.0,6.0,65,0.00,,---,0.00,VWS V14.01,2013-05-03 07:41:00,
2013-05-03 02:46:00,36.4,25.8,30.42,North,353,1.0,5.0,65,0.00,,---,0.00,VWS V14.01,2013-05-03 07:46:00,
2013-05-03 02:51:00,36.4,25.8,30.42,NNE,20,3.0,9.0,65,0.00,,---,0.00,VWS V14.01,2013-05-03 07:51:00,
2013-05-03 02:56:00,36.3,25.7,30.42,North,353,0.0,9.0,65,0.00,,---,0.00,VWS V14.01,2013-05-03 07:56:00,
2013-05-03 03:01:00,36.3,25.7,30.42,North,355,1.0,6.0,65,0.00,,---,0.00,VWS V14.01,2013-05-03 08:01:00,
2013-05-03 03:06:00,36.2,26.0,30.42,NNW,346,2.0,6.0,66,0.00,,---,0.00,VWS V14.01,2013-05-03 08:06:00,
2013-05-03 03:11:00,36.1,25.9,30.42,NNW,332,1.0,6.0,66,0.00,,---,0.00,VWS V14.01,2013-05-03 08:11:00,
2013-05-03 03:16:00,36.1,25.9,30.42,WNW,287,2.0,4.0,66,0.00,,---,0.00,VWS V14.01,2013-05-03 08:16:00,
2013-05-03 03:21:00,36.0,25.8,30.42,North,351,2.0,5.0,66,0.00,,---,0.00,VWS V14.01,2013-05-03 08:21:00,
2013-05-03 03:26:00,35.9,26.0,30.41,North,355,3.0,5.0,67,0.00,,---,0.00,VWS V14.01,2013-05-03 08:26:00,
2013-05-03 03:31:00,35.9,26.0,30.41,NNW,344,1.0,5.0,67,0.00,,---,0.00,VWS V14.01,2013-05-03 08:31:00,
2013-05-03 03:36:00,35.8,25.9,30.41,North,7,1.0,5.0,67,0.00,,---,0.00,VWS V14.01,2013-05-03 08:36:00,
2013-05-03 03:41:00,35.7,25.8,30.41,NW,317,1.0,5.0,67,0.00,,---,0.00,VWS V14.01,2013-05-03 08:41:00,
2013-05-03 03:46:00,35.6,25.7,30.41,NNW,348,2.0,7.0,67,0.00,,---,0.00,VWS V14.01,2013-05-03 08:46:00,
2013-05-03 03:51:00,35.6,25.7,30.41,NNW,345,1.0,7.0,67,0.00,,---,0.00,VWS V14.01,2013-05-03 08:51:00,
2013-05-03 03:56:00,35.5,26.0,30.40,NW,322,1.0,7.0,68,0.00,,---,0.00,VWS V14.01,2013-05-03 08:56:00,
2013-05-03 04:01:00,35.5,26.0,30.40,NNE,22,1.0,3.0,68,0.00,,---,0.00,VWS V14.01,2013-05-03 09:01:00,
2013-05-03 04:06:00,35.4,25.9,30.40,NNW,332,2.0,6.0,68,0.00,,---,0.00,VWS V14.01,2013-05-03 09:06:00,
2013-05-03 04:11:00,35.4,26.3,30.40,North,360,2.0,6.0,69,0.00,,---,0.00,VWS V14.01,2013-05-03 09:11:00,
2013-05-03 04:16:00,35.3,26.2,30.39,NNW,329,3.0,3.0,69,0.00,,---,0.00,VWS V14.01,2013-05-03 09:16:00,
2013-05-03 04:21:00,35.2,26.1,30.39,North,351,1.0,7.0,69,0.00,,---,0.00,VWS V14.01,2013-05-03 09:21:00,
2013-05-03 04:26:00,35.1,26.0,30.39,NNE,16,3.0,7.0,69,0.00,,---,0.00,VWS V14.01,2013-05-03 09:26:00,
2013-05-03 04:31:00,34.9,26.1,30.40,North,4,0.0,4.0,70,0.00,,---,0.00,VWS V14.01,2013-05-03 09:31:00,
2013-05-03 04:36:00,34.8,26.0,30.39,NW,325,0.0,4.0,70,0.00,,---,0.00,VWS V14.01,2013-05-03 09:36:00,
2013-05-03 04:41:00,34.7,25.9,30.39,North,1,2.0,4.0,70,0.00,,---,0.00,VWS V14.01,2013-05-03 09:41:00,
2013-05-03 04:46:00,34.6,25.8,30.39,North,7,1.0,7.0,70,0.00,,---,0.00,VWS V14.01,2013-05-03 09:46:00,
2013-05-03 04:51:00,34.5,26.1,30.38,North,7,2.0,7.0,71,0.00,,---,0.00,VWS V14.01,2013-05-03 09:51:00,
2013-05-03 04:56:00,34.3,25.9,30.38,NNE,26,2.0,7.0,71,0.00,,---,0.00,VWS V14.01,2013-05-03 09:56:00,
2013-05-03 05:01:00,34.3,26.2,30.38,North,360,1.0,4.0,72,0.00,,---,0.00,VWS V14.01,2013-05-03 10:01:00,
2013-05-03 05:06:00,34.3,26.2,30.38,North,11,0.0,8.0,72,0.00,,---,0.00,VWS V14.01,2013-05-03 10:06:00,
2013-05-03 05:11:00,34.3,26.2,30.38,North,358,1.0,8.0,72,0.00,,---,0.00,VWS V14.01,2013-05-03 10:11:00,
2013-05-03 05:16:00,34.3,26.2,30.38,NNW,339,1.0,4.0,72,0.00,,---,0.00,VWS V14.01,2013-05-03 10:16:00,
2013-05-03 05:21:00,34.2,26.1,30.38,NNW,327,1.0,7.0,72,0.00,,---,0.00,VWS V14.01,2013-05-03 10:21:00,
2013-05-03 05:26:00,34.2,26.1,30.38,North,353,1.0,7.0,72,0.00,,---,0.00,VWS V14.01,2013-05-03 10:26:00,
2013-05-03 05:31:00,34.2,26.1,30.38,North,352,3.0,4.0,72,0.00,,---,0.00,VWS V14.01,2013-05-03 10:31:00,
2013-05-03 05:36:00,34.1,26.0,30.38,WNW,290,0.0,4.0,72,0.00,,---,0.00,VWS V14.01,2013-05-03 10:36:00,
2013-05-03 05:41:00,34.1,26.0,30.38,WNW,299,2.0,5.0,72,0.00,,---,0.00,VWS V14.01,2013-05-03 10:41:00,
2013-05-03 05:46:00,34.1,26.0,30.38,NW,325,1.0,3.0,72,0.00,,---,0.00,VWS V14.01,2013-05-03 10:46:00,
2013-05-03 05:51:00,34.1,26.4,30.38,NNW,348,1.0,10.0,73,0.00,,---,0.00,VWS V14.01,2013-05-03 10:51:00,
2013-05-03 05:56:00,34.1,26.4,30.38,NNE,16,2.0,10.0,73,0.00,,---,0.00,VWS V14.01,2013-05-03 10:56:00,
2013-05-03 06:01:00,34.1,26.4,30.37,NNE,29,3.0,6.0,73,0.00,,---,0.00,VWS V14.01,2013-05-03 11:01:00,
2013-05-03 06:06:00,34.0,26.3,30.37,NNW,342,1.0,8.0,73,0.00,,---,0.00,VWS V14.01,2013-05-03 11:06:00,
2013-05-03 06:10:00,34.1,26.7,30.37,North,353,2.0,8.0,74,0.00,,---,0.00,VWS V14.01,2013-05-03 11:10:00,
2013-05-03 06:15:00,34.0,26.6,30.37,North,355,2.0,5.0,74,0.00,,---,0.00,VWS V14.01,2013-05-03 11:15:00,
2013-05-03 06:20:00,33.9,26.5,30.37,NNE,29,3.0,6.0,74,0.00,,---,0.00,VWS V14.01,2013-05-03 11:20:00,
2013-05-03 06:25:00,33.9,26.5,30.37,NNE,16,5.0,11.0,74,0.00,,---,0.00,VWS V14.01,2013-05-03 11:25:00,
2013-05-03 06:30:00,33.8,26.7,30.37,NNE,19,2.0,4.0,75,0.00,,---,0.00,VWS V14.01,2013-05-03 11:30:00,
2013-05-03 06:35:00,33.7,26.6,30.37,North,349,2.0,5.0,75,0.00,,---,0.00,VWS V14.01,2013-05-03 11:35:00,
2013-05-03 06:40:00,33.7,26.6,30.37,NNW,344,4.0,8.0,75,0.00,,---,0.00,VWS V14.01,2013-05-03 11:40:00,
2013-05-03 06:45:00,33.7,27.0,30.37,North,358,2.0,6.0,76,0.00,,---,0.00,VWS V14.01,2013-05-03 11:45:00,
2013-05-03 06:50:00,33.7,27.0,30.36,NNW,339,2.0,6.0,76,0.00,,---,0.00,VWS V14.01,2013-05-03 11:50:00,
2013-05-03 06:55:00,33.6,26.9,30.36,North,2,8.0,8.0,76,0.00,,---,0.00,VWS V14.01,2013-05-03 11:55:00,
2013-05-03 07:00:00,33.5,26.8,30.36,North,351,1.0,7.0,76,0.00,,---,0.00,VWS V14.01,2013-05-03 12:00:00,
2013-05-03 07:05:00,33.6,27.2,30.36,North,8,2.0,7.0,77,0.00,,---,0.00,VWS V14.01,2013-05-03 12:05:00,
2013-05-03 07:10:00,33.6,27.2,30.36,North,10,2.0,8.0,77,0.00,,---,0.00,VWS V14.01,2013-05-03 12:10:00,
2013-05-03 07:15:00,33.6,27.2,30.37,North,2,3.0,9.0,77,0.00,,---,0.00,VWS V14.01,2013-05-03 12:15:00,
2013-05-03 07:20:00,33.5,27.4,30.36,NNW,348,1.0,9.0,78,0.00,,---,0.00,VWS V14.01,2013-05-03 12:20:00,
2013-05-03 07:25:00,33.2,27.7,30.36,North,351,2.0,9.0,80,0.00,,---,0.00,VWS V14.01,2013-05-03 12:25:00,
2013-05-03 07:30:00,32.9,27.7,30.37,NNW,341,6.0,7.0,81,0.00,,---,0.00,VWS V14.01,2013-05-03 12:30:00,
2013-05-03 07:35:00,32.6,28.0,30.36,North,351,0.0,7.0,83,0.00,,---,0.00,VWS V14.01,2013-05-03 12:35:00,
2013-05-03 07:40:00,32.4,28.4,30.36,NW,312,1.0,7.0,85,0.00,,---,0.00,VWS V14.01,2013-05-03 12:40:00,
2013-05-03 07:45:00,32.2,28.2,30.36,NNW,344,1.0,9.0,85,0.00,,---,0.00,VWS V14.01,2013-05-03 12:45:00,
2013-05-03 07:50:00,32.2,28.5,30.36,North,2,1.0,9.0,86,0.00,,---,0.00,VWS V14.01,2013-05-03 12:50:00,
2013-05-03 07:55:00,32.1,28.7,30.36,NNW,340,1.0,9.0,87,0.00,,---,0.00,VWS V14.01,2013-05-03 12:55:00,
2013-05-03 08:00:00,32.0,28.6,30.36,North,5,1.0,4.0,87,0.00,,---,0.00,VWS V14.01,2013-05-03 13:00:00,
2013-05-03 08:05:00,32.0,28.9,30.36,NNW,333,1.0,4.0,88,0.00,,---,0.00,VWS V14.01,2013-05-03 13:05:00,
2013-05-03 08:10:00,32.1,29.0,30.36,North,353,2.0,4.0,88,0.00,,---,0.00,VWS V14.01,2013-05-03 13:10:00,
2013-05-03 08:15:00,32.1,29.0,30.36,North,1,1.0,2.0,88,0.00,,---,0.00,VWS V14.01,2013-05-03 13:15:00,
2013-05-03 08:20:00,32.0,29.1,30.36,NNW,329,0.0,3.0,89,0.00,,---,0.00,VWS V14.01,2013-05-03 13:20:00,
2013-05-03 08:25:00,32.0,29.1,30.35,NNW,332,2.0,6.0,89,0.00,,---,0.00,VWS V14.01,2013-05-03 13:25:00,
2013-05-03 08:30:00,31.9,29.0,30.35,North,1,1.0,4.0,89,0.00,,---,0.00,VWS V14.01,2013-05-03 13:30:00,
2013-05-03 08:35:00,31.9,29.3,30.35,NNW,332,1.0,4.0,90,0.00,,---,0.00,VWS V14.01,2013-05-03 13:35:00,
2013-05-03 08:40:00,31.8,29.2,30.35,North,352,0.0,4.0,90,0.00,,---,0.00,VWS V14.01,2013-05-03 13:40:00,
2013-05-03 08:45:00,31.9,29.3,30.35,NW,318,3.0,4.0,90,0.00,,---,0.00,VWS V14.01,2013-05-03 13:45:00,
2013-05-03 08:50:00,32.0,29.7,30.34,North,358,0.0,4.0,91,0.00,,---,0.00,VWS V14.01,2013-05-03 13:50:00,
2013-05-03 08:55:00,32.1,29.8,30.35,North,351,0.0,4.0,91,0.00,,---,0.00,VWS V14.01,2013-05-03 13:55:00,
2013-05-03 09:00:00,32.0,29.7,30.34,NNW,338,1.0,3.0,91,0.00,,---,0.00,VWS V14.01,2013-05-03 14:00:00,
2013-05-03 09:05:00,32.0,29.7,30.34,NNE,23,3.0,4.0,91,0.00,,---,0.00,VWS V14.01,2013-05-03 14:05:00,
2013-05-03 09:10:00,31.9,29.6,30.34,NNW,335,0.0,5.0,91,0.00,,---,0.00,VWS V14.01,2013-05-03 14:10:00,
2013-05-03 09:15:00,31.9,29.6,30.34,NNW,335,1.0,2.0,91,0.00,,---,0.00,VWS V14.01,2013-05-03 14:15:00,
2013-05-03 09:20:00,31.9,29.6,30.34,North,5,1.0,3.0,91,0.00,,---,0.00,VWS V14.01,2013-05-03 14:20:00,
2013-05-03 09:25:00,32.0,29.7,30.33,North,9,1.0,4.0,91,0.00,,---,0.00,VWS V14.01,2013-05-03 14:25:00,
2013-05-03 09:30:00,32.0,29.7,30.33,ENE,59,3.0,6.0,91,0.00,,---,0.00,VWS V14.01,2013-05-03 14:30:00,
2013-05-03 09:35:00,32.0,29.9,30.33,NNE,26,3.0,7.0,92,0.00,,---,0.00,VWS V14.01,2013-05-03 14:35:00,
2013-05-03 09:40:00,32.0,29.9,30.33,NNW,346,2.0,7.0,92,0.00,,---,0.00,VWS V14.01,2013-05-03 14:40:00,
2013-05-03 09:45:00,32.0,29.9,30.33,North,351,2.0,4.0,92,0.00,,---,0.00,VWS V14.01,2013-05-03 14:45:00,
2013-05-03 09:50:00,32.1,30.0,30.33,NNW,332,1.0,5.0,92,0.00,,---,0.00,VWS V14.01,2013-05-03 14:50:00,
2013-05-03 09:55:00,32.2,30.1,30.33,North,3,0.0,5.0,92,0.00,,---,0.00,VWS V14.01,2013-05-03 14:55:00,
2013-05-03 10:00:00,32.4,30.3,30.33,NW,320,1.0,3.0,92,0.00,,---,0.00,VWS V14.01,2013-05-03 15:00:00,
2013-05-03 10:05:00,32.5,30.4,30.33,North,358,0.0,3.0,92,0.00,,---,0.00,VWS V14.01,2013-05-03 15:05:00,
2013-05-03 10:10:00,32.5,30.4,30.33,NNW,338,1.0,5.0,92,0.00,,---,0.00,VWS V14.01,2013-05-03 15:10:00,
2013-05-03 10:15:00,32.7,30.9,30.33,NW,325,1.0,2.0,93,0.00,,---,0.00,VWS V14.01,2013-05-03 15:15:00,
2013-05-03 10:20:00,32.6,30.5,30.32,North,7,0.0,6.0,92,0.00,,---,0.00,VWS V14.01,2013-05-03 15:20:00,
2013-05-03 10:25:00,32.8,31.0,30.32,NW,309,1.0,6.0,93,0.00,,---,0.00,VWS V14.01,2013-05-03 15:25:00,
2013-05-03 10:30:00,32.9,30.8,30.33,NNW,341,1.0,6.0,92,0.00,,---,0.00,VWS V14.01,2013-05-03 15:30:00,
2013-05-03 10:35:00,32.9,30.8,30.33,North,2,2.0,6.0,92,0.00,,---,0.00,VWS V14.01,2013-05-03 15:35:00,
2013-05-03 10:40:00,32.9,30.8,30.33,WSW,255,4.0,6.0,92,0.00,,---,0.00,VWS V14.01,2013-05-03 15:40:00,
2013-05-03 10:45:00,33.0,30.9,30.33,NW,320,1.0,3.0,92,0.00,,---,0.00,VWS V14.01,2013-05-03 15:45:00,
2013-05-03 10:50:00,33.1,31.0,30.33,NW,315,0.0,4.0,92,0.00,,---,0.00,VWS V14.01,2013-05-03 15:50:00,
2013-05-03 10:55:00,33.2,31.1,30.33,WNW,300,1.0,4.0,92,0.00,,---,0.00,VWS V14.01,2013-05-03 15:55:00,
2013-05-03 11:00:00,33.3,31.2,30.32,NNW,332,2.0,3.0,92,0.00,,---,0.00,VWS V14.01,2013-05-03 16:00:00,
2013-05-03 11:05:00,33.5,31.4,30.32,NNW,339,1.0,3.0,92,0.00,,---,0.00,VWS V14.01,2013-05-03 16:05:00,
2013-05-03 11:10:00,33.6,31.5,30.32,NW,325,1.0,5.0,92,0.00,,---,0.00,VWS V14.01,2013-05-03 16:10:00,
2013-05-03 11:15:00,33.5,31.4,30.32,NW,320,0.0,4.0,92,0.00,,---,0.00,VWS V14.01,2013-05-03 16:15:00,
2013-05-03 11:20:00,33.5,31.4,30.32,NW,322,1.0,4.0,92,0.00,,---,0.00,VWS V14.01,2013-05-03 16:20:00,
2013-05-03 11:25:00,33.6,31.5,30.32,North,360,1.0,4.0,92,0.00,,---,0.00,VWS V14.01,2013-05-03 16:25:00,
2013-05-03 11:30:00,33.5,31.4,30.31,NNE,12,1.0,3.0,92,0.00,,---,0.00,VWS V14.01,2013-05-03 16:30:00,
2013-05-03 11:35:00,33.9,32.1,30.31,NNE,26,2.0,3.0,93,0.00,,---,0.00,VWS V14.01,2013-05-03 16:35:00,
2013-05-03 11:40:00,34.0,31.9,30.31,North,360,1.0,6.0,92,0.00,,---,0.00,VWS V14.01,2013-05-03 16:40:00,
2013-05-03 11:45:00,34.0,31.9,30.30,North,360,1.0,7.0,92,0.00,,---,0.00,VWS V14.01,2013-05-03 16:45:00,
2013-05-03 11:50:00,34.0,31.9,30.30,NNE,21,2.0,7.0,92,0.00,,---,0.00,VWS V14.01,2013-05-03 16:50:00,
2013-05-03 11:55:00,34.0,31.9,30.30,NNE,23,4.0,7.0,92,0.00,,---,0.00,VWS V14.01,2013-05-03 16:55:00,
2013-05-03 12:00:00,34.1,32.0,30.30,WNW,293,1.0,6.0,92,0.00,,---,0.00,VWS V14.01,2013-05-03 17:00:00,
2013-05-03 12:05:00,34.5,32.7,30.30,NNE,20,4.0,6.0,93,0.00,,---,0.00,VWS V14.01,2013-05-03 17:05:00,
2013-05-03 12:10:00,34.3,32.2,30.29,NNE,30,1.0,6.0,92,0.00,,---,0.00,VWS V14.01,2013-05-03 17:10:00,
2013-05-03 12:15:00,34.2,32.1,30.29,NNE,24,5.0,5.0,92,0.00,,---,0.00,VWS V14.01,2013-05-03 17:15:00,
2013-05-03 12:20:00,34.2,32.1,30.29,NNE,26,3.0,6.0,92,0.00,,---,0.00,VWS V14.01,2013-05-03 17:20:00,
2013-05-03 12:25:00,34.3,32.2,30.28,NNW,348,1.0,6.0,92,0.00,,---,0.00,VWS V14.01,2013-05-03 17:25:00,
2013-05-03 12:30:00,34.4,32.3,30.27,NW,321,1.0,5.0,92,0.00,,---,0.00,VWS V14.01,2013-05-03 17:30:00,
2013-05-03 12:35:00,34.7,32.9,30.28,NNW,337,1.0,5.0,93,0.00,,---,0.00,VWS V14.01,2013-05-03 17:35:00,
2013-05-03 12:40:00,34.9,32.8,30.28,NE,41,2.0,5.0,92,0.00,,---,0.00,VWS V14.01,2013-05-03 17:40:00,
2013-05-03 12:45:00,34.8,32.7,30.27,NE,36,9.0,10.0,92,0.00,,---,0.00,VWS V14.01,2013-05-03 17:45:00,
2013-05-03 12:50:00,34.9,32.8,30.27,NW,318,0.0,11.0,92,0.00,,---,0.00,VWS V14.01,2013-05-03 17:50:00,
2013-05-03 12:55:00,35.0,32.9,30.27,NW,325,1.0,11.0,92,0.00,,---,0.00,VWS V14.01,2013-05-03 17:55:00,
2013-05-03 13:00:00,35.1,32.7,30.27,NNE,33,1.0,6.0,91,0.01,,---,0.01,VWS V14.01,2013-05-03 18:00:00,
2013-05-03 13:05:00,35.0,32.6,30.27,NNW,337,1.0,6.0,91,0.01,,---,0.01,VWS V14.01,2013-05-03 18:05:00,
2013-05-03 13:10:00,35.1,32.7,30.26,NNE,29,8.0,8.0,91,0.02,,---,0.02,VWS V14.01,2013-05-03 18:10:00,
2013-05-03 13:15:00,35.1,32.5,30.26,NNE,31,1.0,15.0,90,0.02,,---,0.02,VWS V14.01,2013-05-03 18:15:00,
2013-05-03 13:20:00,35.4,32.8,30.26,North,351,2.0,15.0,90,0.03,,---,0.03,VWS V14.01,2013-05-03 18:20:00,
2013-05-03 13:25:00,35.4,32.5,30.26,North,351,2.0,15.0,89,0.03,,---,0.03,VWS V14.01,2013-05-03 18:25:00,
2013-05-03 13:30:00,35.4,32.5,30.25,NNW,342,2.0,5.0,89,0.03,,---,0.03,VWS V14.01,2013-05-03 18:30:00,
2013-05-03 13:35:00,35.3,32.4,30.25,North,355,3.0,9.0,89,0.04,,---,0.04,VWS V14.01,2013-05-03 18:35:00,
2013-05-03 13:40:00,35.4,32.5,30.25,North,351,4.0,11.0,89,0.04,,---,0.04,VWS V14.01,2013-05-03 18:40:00,
2013-05-03 13:45:00,35.5,32.6,30.25,NNW,346,1.0,9.0,89,0.05,,---,0.05,VWS V14.01,2013-05-03 18:45:00,
2013-05-03 13:50:00,35.6,32.7,30.25,NNE,13,2.0,9.0,89,0.05,,---,0.05,VWS V14.01,2013-05-03 18:50:00,
2013-05-03 13:55:00,35.4,32.5,30.25,NE,41,4.0,9.0,89,0.06,,---,0.06,VWS V14.01,2013-05-03 18:55:00,
2013-05-03 14:00:00,35.3,32.7,30.25,NE,36,2.0,9.0,90,0.06,,---,0.06,VWS V14.01,2013-05-03 19:00:00,
2013-05-03 14:05:00,35.4,32.8,30.25,NNE,12,2.0,9.0,90,0.07,,---,0.07,VWS V14.01,2013-05-03 19:05:00,
2013-05-03 14:10:00,35.4,32.8,30.25,NNE,19,5.0,9.0,90,0.07,,---,0.07,VWS V14.01,2013-05-03 19:10:00,
2013-05-03 14:15:00,35.5,33.1,30.25,NW,323,1.0,8.0,91,0.06,,---,0.08,VWS V14.01,2013-05-03 19:15:00,
2013-05-03 14:20:00,35.6,33.0,30.25,NNE,29,2.0,8.0,90,0.06,,---,0.08,VWS V14.01,2013-05-03 19:20:00,
2013-05-03 14:25:00,35.6,33.0,30.25,NE,52,5.0,9.0,90,0.07,,---,0.09,VWS V14.01,2013-05-03 19:25:00,
2013-05-03 14:30:00,35.5,32.9,30.25,NNE,19,5.0,8.0,90,0.06,,---,0.09,VWS V14.01,2013-05-03 19:30:00,
2013-05-03 14:35:00,35.5,32.9,30.25,North,7,3.0,8.0,90,0.06,,---,0.09,VWS V14.01,2013-05-03 19:35:00,
2013-05-03 14:40:00,35.4,32.8,30.25,NE,40,8.0,10.0,90,0.07,,---,0.10,VWS V14.01,2013-05-03 19:40:00,
2013-05-03 14:45:00,35.5,32.9,30.25,North,355,6.0,11.0,90,0.05,,---,0.10,VWS V14.01,2013-05-03 19:45:00,
2013-05-03 14:50:00,35.5,32.9,30.25,North,356,1.0,12.0,90,0.06,,---,0.11,VWS V14.01,2013-05-03 19:50:00,
2013-05-03 14:55:00,35.6,33.0,30.25,NNE,14,2.0,12.0,90,0.06,,---,0.11,VWS V14.01,2013-05-03 19:55:00,
2013-05-03 15:00:00,35.7,33.1,30.25,North,351,1.0,5.0,90,0.05,,---,0.11,VWS V14.01,2013-05-03 20:00:00,
2013-05-03 15:05:00,35.6,33.0,30.25,NNE,12,7.0,8.0,90,0.06,,---,0.12,VWS V14.01,2013-05-03 20:05:00,
2013-05-03 15:10:00,35.5,32.9,30.24,NNE,17,4.0,9.0,90,0.06,,---,0.12,VWS V14.01,2013-05-03 20:10:00,
2013-05-03 15:15:00,35.6,33.2,30.24,NNE,20,3.0,4.0,91,0.05,,---,0.12,VWS V14.01,2013-05-03 20:15:00,
2013-05-03 15:20:00,35.5,32.9,30.24,NNE,12,2.0,10.0,90,0.06,,---,0.13,VWS V14.01,2013-05-03 20:20:00,
2013-05-03 15:25:00,35.5,33.1,30.24,NE,44,3.0,11.0,91,0.06,,---,0.13,VWS V14.01,2013-05-03 20:25:00,
2013-05-03 15:30:00,35.6,33.0,30.23,NNE,26,3.0,8.0,90,0.05,,---,0.14,VWS V14.01,2013-05-03 20:30:00,
2013-05-03 15:35:00,35.6,33.0,30.23,NNW,342,3.0,14.0,90,0.05,,---,0.14,VWS V14.01,2013-05-03 20:35:00,
2013-05-03 15:40:00,35.6,33.0,30.23,NNE,16,4.0,14.0,90,0.06,,---,0.15,VWS V14.01,2013-05-03 20:40:00,
2013-05-03 15:45:00,35.5,32.9,30.23,NNE,29,3.0,11.0,90,0.05,,---,0.15,VWS V14.01,2013-05-03 20:45:00,
2013-05-03 15:50:00,35.6,33.0,30.23,NNE,16,5.0,11.0,90,0.05,,---,0.15,VWS V14.01,2013-05-03 20:50:00,
2013-05-03 15:55:00,35.6,33.0,30.23,NNW,340,2.0,11.0,90,0.06,,---,0.16,VWS V14.01,2013-05-03 20:55:00,
2013-05-03 16:00:00,35.8,33.4,30.23,NNE,30,4.0,6.0,91,0.06,,---,0.17,VWS V14.01,2013-05-03 21:00:00,
2013-05-03 16:05:00,35.7,33.1,30.23,North,7,1.0,9.0,90,0.06,,---,0.17,VWS V14.01,2013-05-03 21:05:00,
2013-05-03 16:10:00,35.5,32.9,30.23,NNW,338,0.0,9.0,90,0.06,,---,0.17,VWS V14.01,2013-05-03 21:10:00,
2013-05-03 16:15:00,35.4,33.0,30.23,North,358,3.0,5.0,91,0.06,,---,0.18,VWS V14.01,2013-05-03 21:15:00,
2013-05-03 16:20:00,35.4,33.0,30.22,NE,47,1.0,9.0,91,0.06,,---,0.18,VWS V14.01,2013-05-03 21:20:00,
2013-05-03 16:25:00,35.4,32.8,30.23,WNW,303,5.0,9.0,90,0.07,,---,0.19,VWS V14.01,2013-05-03 21:25:00,
2013-05-03 16:30:00,35.5,32.9,30.22,NNW,345,4.0,8.0,90,0.06,,---,0.19,VWS V14.01,2013-05-03 21:30:00,
2013-05-03 16:35:00,35.5,32.9,30.22,North,2,2.0,10.0,90,0.06,,---,0.19,VWS V14.01,2013-05-03 21:35:00,
2013-05-03 16:40:00,35.6,33.0,30.22,NNE,16,2.0,10.0,90,0.07,,---,0.20,VWS V14.01,2013-05-03 21:40:00,
2013-05-03 16:45:00,35.7,33.1,30.22,North,5,3.0,8.0,90,0.05,,---,0.20,VWS V14.01,2013-05-03 21:45:00,
2013-05-03 16:50:00,35.5,32.6,30.22,NNE,29,2.0,8.0,89,0.05,,---,0.20,VWS V14.01,2013-05-03 21:50:00,
2013-05-03 16:55:00,35.5,32.6,30.22,North,359,1.0,8.0,89,0.05,,---,0.20,VWS V14.01,2013-05-03 21:55:00,
2013-05-03 17:00:00,35.3,32.1,30.22,NNE,15,5.0,15.0,88,0.04,,---,0.20,VWS V14.01,2013-05-03 22:00:00,
2013-05-03 17:05:00,35.1,31.9,30.22,NNE,31,4.0,15.0,88,0.04,,---,0.20,VWS V14.01,2013-05-03 22:05:00,
2013-05-03 17:10:00,35.1,31.9,30.22,NNW,332,3.0,15.0,88,0.04,,---,0.20,VWS V14.01,2013-05-03 22:10:00,
2013-05-03 17:15:00,35.2,32.0,30.22,NNE,23,4.0,11.0,88,0.03,,---,0.21,VWS V14.01,2013-05-03 22:15:00,
2013-05-03 17:20:00,35.1,31.9,30.22,North,358,2.0,13.0,88,0.03,,---,0.21,VWS V14.01,2013-05-03 22:20:00,
2013-05-03 17:25:00,35.1,31.9,30.22,NNE,26,4.0,13.0,88,0.03,,---,0.21,VWS V14.01,2013-05-03 22:25:00,
2013-05-03 17:30:00,35.1,31.9,30.23,North,353,2.0,6.0,88,0.02,,---,0.21,VWS V14.01,2013-05-03 22:30:00,
2013-05-03 17:35:00,35.2,32.3,30.23,West,273,2.0,8.0,89,0.02,,---,0.21,VWS V14.01,2013-05-03 22:35:00,
2013-05-03 17:40:00,35.3,32.4,30.23,NW,306,1.0,8.0,89,0.03,,---,0.22,VWS V14.01,2013-05-03 22:40:00,
2013-05-03 17:45:00,35.2,32.3,30.23,NNE,12,4.0,5.0,89,0.02,,---,0.22,VWS V14.01,2013-05-03 22:45:00,
2013-05-03 17:50:00,35.0,32.1,30.23,North,355,2.0,12.0,89,0.02,,---,0.22,VWS V14.01,2013-05-03 22:50:00,
2013-05-03 17:55:00,34.9,32.0,30.23,North,360,3.0,12.0,89,0.02,,---,0.22,VWS V14.01,2013-05-03 22:55:00,
2013-05-03 18:00:00,34.7,31.8,30.23,North,359,2.0,6.0,89,0.02,,---,0.22,VWS V14.01,2013-05-03 23:00:00,
2013-05-03 18:05:00,34.6,31.7,30.24,NNW,339,2.0,8.0,89,0.03,,---,0.23,VWS V14.01,2013-05-03 23:05:00,
2013-05-03 18:10:00,34.5,31.6,30.24,NE,47,5.0,8.0,89,0.03,,---,0.23,VWS V14.01,2013-05-03 23:10:00,
2013-05-03 18:15:00,34.4,31.5,30.23,NNE,16,2.0,7.0,89,0.02,,---,0.23,VWS V14.01,2013-05-03 23:15:00,
2013-05-03 18:20:00,34.4,31.5,30.23,NNE,16,1.0,7.0,89,0.02,,---,0.23,VWS V14.01,2013-05-03 23:20:00,
2013-05-03 18:25:00,34.4,31.8,30.23,NNE,22,2.0,7.0,90,0.02,,---,0.23,VWS V14.01,2013-05-03 23:25:00,
2013-05-03 18:30:00,34.4,31.8,30.23,NNE,33,3.0,10.0,90,0.03,,---,0.24,VWS V14.01,2013-05-03 23:30:00,
2013-05-03 18:35:00,34.3,31.4,30.23,NNW,346,3.0,12.0,89,0.03,,---,0.24,VWS V14.01,2013-05-03 23:35:00,
2013-05-03 18:40:00,34.4,31.8,30.23,NNE,13,3.0,12.0,90,0.04,,---,0.25,VWS V14.01,2013-05-03 23:40:00,
2013-05-03 18:45:00,34.4,31.8,30.23,NNE,21,2.0,4.0,90,0.03,,---,0.25,VWS V14.01,2013-05-03 23:45:00,
2013-05-03 18:50:00,34.4,31.8,30.23,NNE,30,6.0,9.0,90,0.03,,---,0.25,VWS V14.01,2013-05-03 23:50:00,
2013-05-03 18:55:00,34.4,31.8,30.23,NNE,23,2.0,9.0,90,0.03,,---,0.25,VWS V14.01,2013-05-03 23:55:00,
2013-05-03 19:00:00,34.4,31.8,30.22,NE,36,1.0,9.0,90,0.03,,---,0.25,VWS V14.01,2013-05-04 00:00:00,
2013-05-03 19:05:00,34.4,31.8,30.23,North,9,4.0,11.0,90,0.03,,---,0.25,VWS V14.01,2013-05-04 00:05:00,
2013-05-03 19:10:00,34.4,31.8,30.22,North,353,3.0,11.0,90,0.03,,---,0.25,VWS V14.01,2013-05-04 00:10:00,
2013-05-03 19:15:00,34.4,31.8,30.22,North,360,1.0,7.0,90,0.02,,---,0.25,VWS V14.01,2013-05-04 00:15:00,
2013-05-03 19:20:00,34.4,31.8,30.22,North,349,2.0,8.0,90,0.03,,---,0.26,VWS V14.01,2013-05-04 00:20:00,
2013-05-03 19:25:00,34.4,31.8,30.22,NNW,346,2.0,8.0,90,0.03,,---,0.26,VWS V14.01,2013-05-04 00:25:00,
2013-05-03 19:30:00,34.3,31.7,30.22,North,7,2.0,7.0,90,0.02,,---,0.26,VWS V14.01,2013-05-04 00:30:00,
2013-05-03 19:35:00,34.2,31.6,30.21,NNE,19,4.0,11.0,90,0.02,,---,0.26,VWS V14.01,2013-05-04 00:35:00,
2013-05-03 19:40:00,34.2,31.6,30.21,NNW,342,4.0,11.0,90,0.02,,---,0.26,VWS V14.01,2013-05-04 00:40:00,
2013-05-03 19:45:00,34.2,31.6,30.21,North,9,2.0,7.0,90,0.01,,---,0.26,VWS V14.01,2013-05-04 00:45:00,
2013-05-03 19:50:00,34.2,31.6,30.22,North,9,1.0,7.0,90,0.01,,---,0.26,VWS V14.01,2013-05-04 00:50:00,
2013-05-03 19:55:00,34.2,31.6,30.22,NW,326,2.0,7.0,90,0.01,,---,0.26,VWS V14.01,2013-05-04 00:55:00,
2013-05-03 20:00:00,34.2,31.6,30.22,NNE,26,4.0,8.0,90,0.02,,---,0.27,VWS V14.01,2013-05-04 01:00:00,
2013-05-03 20:05:00,34.2,31.6,30.22,NNE,14,2.0,10.0,90,0.02,,---,0.27,VWS V14.01,2013-05-04 01:05:00,
2013-05-03 20:10:00,34.2,31.6,30.22,NNE,26,4.0,10.0,90,0.02,,---,0.27,VWS V14.01,2013-05-04 01:10:00,
2013-05-03 20:15:00,34.2,31.6,30.22,NNW,347,4.0,7.0,90,0.02,,---,0.27,VWS V14.01,2013-05-04 01:15:00,
2013-05-03 20:20:00,34.2,31.6,30.21,NNW,346,1.0,7.0,90,0.02,,---,0.27,VWS V14.01,2013-05-04 01:20:00,
2013-05-03 20:25:00,34.1,31.5,30.21,NNE,16,7.0,9.0,90,0.02,,---,0.27,VWS V14.01,2013-05-04 01:25:00,
2013-05-03 20:30:00,34.0,31.1,30.21,NNE,19,5.0,13.0,89,0.01,,---,0.27,VWS V14.01,2013-05-04 01:30:00,
2013-05-03 20:35:00,33.9,31.3,30.22,NE,45,5.0,13.0,90,0.01,,---,0.27,VWS V14.01,2013-05-04 01:35:00,
2013-05-03 20:40:00,33.9,31.0,30.21,North,4,2.0,14.0,89,0.01,,---,0.27,VWS V14.01,2013-05-04 01:40:00,
2013-05-03 20:45:00,33.9,31.3,30.22,NNW,348,2.0,8.0,90,0.01,,---,0.27,VWS V14.01,2013-05-04 01:45:00,
2013-05-03 20:50:00,33.9,31.3,30.21,North,349,2.0,8.0,90,0.01,,---,0.27,VWS V14.01,2013-05-04 01:50:00,
2013-05-03 20:55:00,33.9,31.3,30.21,North,351,0.0,8.0,90,0.01,,---,0.27,VWS V14.01,2013-05-04 01:55:00,
2013-05-03 21:00:00,34.0,31.4,30.22,North,353,2.0,9.0,90,0.01,,---,0.27,VWS V14.01,2013-05-04 02:00:00,
2013-05-03 21:05:00,33.9,31.3,30.22,NE,40,4.0,9.0,90,0.01,,---,0.27,VWS V14.01,2013-05-04 02:05:00,
2013-05-03 21:10:00,33.8,31.2,30.22,North,2,1.0,9.0,90,0.01,,---,0.27,VWS V14.01,2013-05-04 02:10:00,
2013-05-03 21:15:00,33.8,31.2,30.22,North,9,3.0,12.0,90,0.00,,---,0.27,VWS V14.01,2013-05-04 02:15:00,
2013-05-03 21:20:00,33.7,31.1,30.23,NNE,16,3.0,12.0,90,0.00,,---,0.27,VWS V14.01,2013-05-04 02:20:00,
2013-05-03 21:25:00,33.7,31.1,30.23,NW,314,5.0,12.0,90,0.01,,---,0.28,VWS V14.01,2013-05-04 02:25:00,
2013-05-03 21:30:00,33.6,31.0,30.22,NNE,16,4.0,10.0,90,0.01,,---,0.28,VWS V14.01,2013-05-04 02:30:00,
2013-05-03 21:35:00,33.6,31.0,30.22,NNE,17,4.0,10.0,90,0.01,,---,0.28,VWS V14.01,2013-05-04 02:35:00,
2013-05-03 21:40:00,33.5,30.9,30.22,NNE,16,1.0,10.0,90,0.01,,---,0.28,VWS V14.01,2013-05-04 02:40:00,
2013-05-03 21:45:00,33.5,30.9,30.22,ENE,57,11.0,13.0,90,0.01,,---,0.28,VWS V14.01,2013-05-04 02:45:00,
2013-05-03 21:50:00,33.5,30.9,30.22,NNE,19,4.0,13.0,90,0.01,,---,0.28,VWS V14.01,2013-05-04 02:50:00,
2013-05-03 21:55:00,33.5,30.9,30.22,NNE,13,1.0,13.0,90,0.01,,---,0.28,VWS V14.01,2013-05-04 02:55:00,
2013-05-03 22:00:00,33.5,30.9,30.22,West,273,2.0,6.0,90,0.01,,---,0.28,VWS V14.01,2013-05-04 03:00:00,
2013-05-03 22:05:00,33.4,30.8,30.22,NW,324,1.0,8.0,90,0.01,,---,0.28,VWS V14.01,2013-05-04 03:05:00,
2013-05-03 22:10:00,33.4,30.8,30.23,NNE,26,1.0,8.0,90,0.01,,---,0.28,VWS V14.01,2013-05-04 03:10:00,
2013-05-03 22:15:00,33.3,30.7,30.23,NNW,342,0.0,6.0,90,0.01,,---,0.28,VWS V14.01,2013-05-04 03:15:00,
2013-05-03 22:20:00,33.3,30.7,30.23,NNW,344,1.0,6.0,90,0.01,,---,0.28,VWS V14.01,2013-05-04 03:20:00,
2013-05-03 22:25:00,33.3,30.7,30.23,North,349,1.0,6.0,90,0.01,,---,0.28,VWS V14.01,2013-05-04 03:25:00,
2013-05-03 22:30:00,33.3,30.7,30.23,NNE,23,5.0,6.0,90,0.00,,---,0.28,VWS V14.01,2013-05-04 03:30:00,
2013-05-03 22:35:00,33.3,30.7,30.23,NE,43,4.0,6.0,90,0.00,,---,0.28,VWS V14.01,2013-05-04 03:35:00,
2013-05-03 22:40:00,33.3,30.7,30.23,NNE,20,2.0,8.0,90,0.00,,---,0.28,VWS V14.01,2013-05-04 03:40:00,
2013-05-03 22:45:00,33.3,30.7,30.23,North,8,2.0,6.0,90,0.00,,---,0.28,VWS V14.01,2013-05-04 03:45:00,
2013-05-03 22:50:00,33.3,30.7,30.23,North,11,0.0,6.0,90,0.00,,---,0.28,VWS V14.01,2013-05-04 03:50:00,
2013-05-03 22:55:00,33.3,30.7,30.22,North,356,1.0,6.0,90,0.00,,---,0.28,VWS V14.01,2013-05-04 03:55:00,
2013-05-03 23:00:00,33.3,30.7,30.22,NNW,347,3.0,5.0,90,0.00,,---,0.28,VWS V14.01,2013-05-04 04:00:00,
2013-05-03 23:01:00,33.3,30.7,30.22,NNE,19,3.0,5.0,90,0.00,,---,0.28,VWS V14.01,2013-05-04 04:01:00,
2013-05-03 23:06:00,33.3,30.7,30.22,North,358,1.0,7.0,90,0.00,,---,0.28,VWS V14.01,2013-05-04 04:06:00,
2013-05-03 23:11:00,33.4,30.8,30.22,North,352,2.0,7.0,90,0.00,,---,0.28,VWS V14.01,2013-05-04 04:11:00,
2013-05-03 23:16:00,33.4,30.8,30.22,North,2,1.0,5.0,90,0.00,,---,0.28,VWS V14.01,2013-05-04 04:16:00,
2013-05-03 23:21:00,33.5,30.9,30.22,North,11,2.0,5.0,90,0.00,,---,0.28,VWS V14.01,2013-05-04 04:21:00,
2013-05-03 23:26:00,33.5,30.9,30.22,NNE,20,3.0,5.0,90,0.00,,---,0.28,VWS V14.01,2013-05-04 04:26:00,
2013-05-03 23:31:00,33.5,30.9,30.22,NNE,29,3.0,9.0,90,0.00,,---,0.28,VWS V14.01,2013-05-04 04:31:00,
2013-05-03 23:36:00,33.5,30.9,30.22,North,6,2.0,9.0,90,0.00,,---,0.28,VWS V14.01,2013-05-04 04:36:00,
2013-05-03 23:41:00,33.6,31.0,30.21,North,356,1.0,9.0,90,0.00,,---,0.28,VWS V14.01,2013-05-04 04:41:00,
2013-05-03 23:46:00,33.5,30.9,30.22,NNE,16,1.0,5.0,90,0.00,,---,0.28,VWS V14.01,2013-05-04 04:46:00,
2013-05-03 23:51:00,33.5,30.9,30.22,North,359,5.0,6.0,90,0.00,,---,0.28,VWS V14.01,2013-05-04 04:51:00,
2013-05-03 23:56:00,33.5,30.9,30.22,NW,320,2.0,6.0,90,0.00,,---,0.28,VWS V14.01,2013-05-04 04:56:00,